Weather History for Vancouver, WA

Change the Weather History Date:

Sunday, May 19, 2013

  Actual Average Record
Temperature  
Mean Temperature 60 °F 59 °F  
Max Temperature 66 °F 69 °F 90 °F (1961)
Min Temperature 53 °F 49 °F 37 °F (2003)
Degree Days  
Heating Degree Days 5    
Month to date heating degree days 82  
Since 1 July heating degree days 4038  
Cooling Degree Days 0    
Month to date cooling degree days 12  
Year to date cooling degree days 12  
Growing Degree Days 8 (Base 50)    
Moisture  
Dew Point 48 °F    
Average Humidity 69    
Maximum Humidity 93    
Minimum Humidity 44    
Precipitation  
Precipitation 0.00 in 0.07 in 0.89 in (1981)
Month to date precipitation 0.58 1.66  
Year to date precipitation 8.92 17.77  
Snow  
Snow 0.00 in - - ()
Month to date snowfall 0.0  
Snow Depth 0.00 in    
Sea Level Pressure  
Sea Level Pressure 30.35 in    
Wind  
Wind Speed 5 mph (NW)    
Max Wind Speed 13 mph    
Max Gust Speed 18 mph    
Visibility 9 miles    
Events      
T = Trace of Precipitation, MM = Missing Value Source: NWS Daily Summary

Daily Weather History Graph

Daily Weather History Graph

Search for Another Location

Airport:

Trip Planner

Search our weather history database for the weather conditions in past years. The results will help you decide how hot, cold, wet, or windy it might be!

Date:

Astronomy

May. 19, 2013 Rise Set
Actual Time 5:34 AM PDT 8:39 PM PDT
Civil Twilight 4:59 AM PDT 9:15 PM PDT
Nautical Twilight 4:14 AM PDT 10:01 PM PDT
Astronomical Twilight 3:19 AM PDT 10:56 PM PDT
Moon 2:33 PM PDT (5/19) 2:19 AM PDT (5/19)
Length of Visible Light 16h 15m
Length of Day
15h 05m
Waxing Gibbous, 66% of the Moon is Illuminated
May 19
Waxing Gibbous
May 24
Full
May 31
Last Quarter
Jun 8
New
Jun 16
First Quarter

Hourly Weather History & Observations

Time (PDT) Temp. Dew Point Humidity Pressure Visibility Wind Dir Wind Speed Gust Speed Precip Events Conditions
12:00 AM 51.8 °F 51.8 °F 100% 30.28 in 2.0 mi Calm Calm - N/A   Overcast
12:18 AM 51.8 °F 51.8 °F 100% 30.29 in 5.0 mi Calm Calm - N/A   Overcast
12:26 AM 51.8 °F 51.8 °F 100% 30.29 in 6.0 mi Calm Calm - N/A   Overcast
12:53 AM 53.1 °F 52.0 °F 96% 30.30 in 9.0 mi Calm Calm - N/A   Overcast
1:29 AM 53.6 °F 51.8 °F 94% 30.30 in 9.0 mi Calm Calm - N/A   Overcast
1:36 AM 53.6 °F 51.8 °F 94% 30.30 in 9.0 mi Calm Calm - N/A   Overcast
1:53 AM 54.0 °F 52.0 °F 93% 30.30 in 10.0 mi Calm Calm - N/A   Overcast
2:17 AM 53.6 °F 51.8 °F 94% 30.30 in 9.0 mi Calm Calm - N/A   Overcast
2:53 AM 54.0 °F 52.0 °F 93% 30.32 in 10.0 mi Calm Calm - N/A   Overcast
3:53 AM 54.0 °F 52.0 °F 93% 30.34 in 10.0 mi Calm Calm - N/A   Overcast
4:10 AM 53.6 °F 51.8 °F 94% 30.33 in 10.0 mi Calm Calm - N/A   Overcast
5:08 AM 53.6 °F 51.8 °F 94% 30.34 in 10.0 mi Calm Calm - N/A   Overcast
5:36 AM 53.6 °F 51.8 °F 94% 30.35 in 10.0 mi Calm Calm - N/A   Overcast
5:44 AM 53.6 °F 51.8 °F 94% 30.35 in 10.0 mi Calm Calm - N/A   Overcast
5:53 AM 53.1 °F 51.1 °F 93% 30.35 in 10.0 mi Calm Calm - N/A   Overcast
6:42 AM 53.6 °F 51.8 °F 94% 30.36 in 10.0 mi Calm Calm - N/A   Overcast
6:53 AM 54.0 °F 51.1 °F 90% 30.37 in 10.0 mi WNW 4.6 mph - N/A   Overcast
7:00 AM 55.4 °F 50.0 °F 82% 30.36 in 10.0 mi NW 5.8 mph - N/A   Overcast
7:53 AM 54.0 °F 46.0 °F 75% 30.39 in 10.0 mi NW 11.5 mph - N/A   Overcast
8:02 AM 53.6 °F 44.6 °F 72% 30.39 in 10.0 mi NW 6.9 mph - N/A   Overcast
8:32 AM 53.6 °F 44.6 °F 72% 30.40 in 10.0 mi NW 9.2 mph 17.3 mph N/A   Overcast
8:53 AM 54.0 °F 45.0 °F 72% 30.40 in 10.0 mi NW 8.1 mph - N/A   Overcast
9:14 AM 55.4 °F 44.6 °F 67% 30.40 in 10.0 mi NW 9.2 mph 18.4 mph N/A   Overcast
9:53 AM 55.9 °F 45.0 °F 67% 30.40 in 10.0 mi NW 9.2 mph - N/A   Overcast
10:53 AM 57.9 °F 45.0 °F 62% 30.41 in 10.0 mi NNW 5.8 mph - N/A   Overcast
1:53 PM 60.1 °F 45.0 °F 57% 30.41 in 10.0 mi WNW 8.1 mph - N/A   Overcast
2:53 PM 62.1 °F 45.0 °F 53% 30.40 in 10.0 mi Variable 4.6 mph - N/A   Overcast
3:53 PM 64.0 °F 46.0 °F 52% 30.40 in 10.0 mi Variable 5.8 mph - N/A   Overcast
4:53 PM 64.9 °F 44.1 °F 47% 30.38 in 10.0 mi NW 9.2 mph 16.1 mph N/A   Partly Cloudy
5:53 PM 64.9 °F 42.1 °F 43% 30.36 in 10.0 mi WNW 10.4 mph - N/A   Clear
6:53 PM 64.9 °F 42.1 °F 43% 30.34 in 10.0 mi WNW 9.2 mph - N/A   Clear
7:53 PM 63.0 °F 43.0 °F 48% 30.35 in 10.0 mi North 5.8 mph - N/A   Clear
9:53 PM 57.0 °F 45.0 °F 64% 30.35 in 10.0 mi NNW 8.1 mph - N/A   Clear
10:53 PM 54.0 °F 44.1 °F 69% 30.35 in 10.0 mi NW 5.8 mph - N/A   Clear
11:53 PM 52.0 °F 44.1 °F 74% 30.35 in 10.0 mi Variable 4.6 mph - N/A   Clear